STARLINK-35367

Last updated on Mon Oct 20 2025 00:02:08 GMT+0000 (Coordinated Universal Time)

1 65883U 25224B 25292.25002315 -.01449688 00000+0 -77761-2 0 9994 2 65883 53.1517 313.5355 0001181 79.3193 24.3933 15.82227821 3108
UTC large
Height (km)
Speed (km/s)
/
Latitude / Longitude
Inclination (degrees)
Orbital Period (minutes)
Azimuth
Elevation
Range (km)
Doppler Factor

Next 0 passes for location: London (51.5072 / 0.1276)

Sorry there are no passes over London.